Weather in Bloemfontein

South Africa     29˚08′06″S   26˚13′41″E
temp.,
°C
wind,
m/s
gust,
m/s
humid.,
%
clouds,
%
prec.,
mm/h
press.,
hPa
HPBL,
m
30 november, mon
mon3023:00+18˚se11350 0.0 101123
02:00+18˚ne34290 0.0 101133
05:00+15˚ne611690 0.0 1012310
08:00+21˚nne711550 0.0 1012595
11:00+29˚nw912250 0.0 10103271
14:00+33˚w813121 0.0 10064750
17:00+25˚nw2734100 0.3 1005539
20:00+22˚n344384 0.3 100749
1 december, tue
tue123:00+20˚n484948 0.0 1009182
02:00+19˚nnw5105725 0.0 1008235
05:00+17˚nnw34640 0.0 100974
08:00+23˚wnw452233 0.0 1009577
11:00+29˚w711130 0.0 10072729
14:00+30˚w1012110 0.0 10053416
17:00+28˚sw910140 0.0 10042906
20:00+22˚s715210 0.0 1007518
2 december, wed
wed223:00+18˚s714280 0.0 1011460
02:00+15˚sse713500 0.0 1012301
05:00+12˚sse510590 0.0 1013269
08:00+19˚ese56400 0.0 1013459
11:00+26˚nnw12180 0.0 10111901
14:00+28˚wnw23120 0.0 10082872
17:00+29˚sw54110 0.0 10062984
20:00+22˚s58160 0.0 1008118
3 december, thu
thu323:00+17˚e47280 0.0 1012151
02:00+16˚ne713720 0.0 1013634
05:00+16˚nne6138522 0.8 1014593
08:00+19˚n8106834 1.3 1015935
11:00+22˚n7954100 0.1 10141430
14:00+26˚nne4636100 0.7 10102137
17:00+14˚sse11137499 3.9 1009229
20:00+16˚ese9146774 4.0 1012370
4 december, fri
fri423:00+16˚nne6107673 0.0 1016388
02:00+15˚ne6107486 0.6 1015443
05:00+13˚ene478561 0.0 1016170
08:00+19˚nne686230 0.0 1016817
11:00+26˚n66370 0.0 10131499
14:00+30˚nnw44210 0.0 10103489
17:00+29˚n341965 0.0 10081476
20:00+23˚nw593381 0.0 1011291